Location: Moydans
(44.3997°N, 5.5038°E)
Time: 10:35:28
(UTC+02:00)

Tiangong - Pass Details

Date: 25 September 2021
Orbit: 382 x 385 km, 41.5° (Epoch: 17 October)

Event Time Altitude Azimuth Distance (km) Brightness Sun altitude
Exits shadow 06:52:02 - 215° (SW) 2,144 4.4 -7.4°
Reaches altitude 10° 06:54:21 10° 194° (SSW) 1,389 3.7 -7.0°
Maximum altitude 06:56:23 16° 154° (SSE) 1,085 3.6 -6.6°
Drops below altitude 10° 06:58:26 10° 113° (ESE) 1,392 5.0 -6.2°
Sets 07:01:01 0° 91° (E) 2,247 7.6 -5.8°
